{"data":{"norad_id":36590,"epoch":"2026-09-20T01:54:14.925888Z","epoch_age_seconds":58369,"freshness":"FRESH","line1":"1 36590U 10024A   26263.07933942 -.00000138  00000+0  00000+0 0  9997","line2":"2 36590   4.7363  61.0044 0004930   0.9511  45.2315  1.00273546 59726","mean_motion":1.00273546,"eccentricity":0.000493,"inclination_deg":4.7363,"raan_deg":61.0044,"arg_perigee_deg":0.9511,"mean_anomaly_deg":45.2315,"bstar":0,"rev_number":5972,"period_min":1436.0716833531,"perigee_km":35765.314326709,"apogee_km":35806.888265669,"semimajor_km":42164.238296189,"source":"CELESTRAK","updated_at":"2026-09-20T09:00:35.163618Z"}}